Regional Weather Roundup
Issued by NWS Lake Charles, LA

Current Version |  Previous Version |  Text Only |  Print | Product List |  Glossary On
Versions: 1 2 3 4 5 6 7 8 9 10 11 12 13 14 15 16 17 18 19 20 21 22 23 24 25 26 27 28
959
ASUS44 KLCH 280410
RWRLCH
REGIONAL WEATHER ROUNDUP
NATIONAL WEATHER SERVICE LAKE CHARLES LA
1100 PM CDT MON MAY 27 2024

Note: "fair" indicates few or no clouds below 12,000 feet with no
significant weather and/or obstructions to visibility.


ACROSS SOUTHEAST TEXAS

CITY           SKY/WX    TMP DP  RH WIND       PRES   REMARKS
BEAUMONT       PTCLDY    79  78  97 S5        29.95R FOG
BEAUMONT CITY  PTCLDY    81  79  95 CALM      29.96S FOG
ORANGE         PTCLDY    83  79  88 S3        29.98S
JASPER           N/A     81  82 100 SE3       29.96S FOG
$$

ACROSS CENTRAL LOUISIANA

CITY           SKY/WX    TMP DP  RH WIND       PRES   REMARKS
LEESVILLE      NOT AVBL
FULLERTON      PTCLDY    80  76  87 CALM      29.97R
ALEXANDRIA INT CLEAR     81  75  82 CALM      29.97R
ESLER FIELD    CLEAR     76  74  93 CALM      29.98R FOG
DERIDDER       PTCLDY    81  81 100 CALM      29.99R
OAKDALE        PTCLDY    79  75  89 CALM      29.98R FOG
OPELOUSAS      PTCLDY    82  78  88 CALM      29.99R
$$

ACROSS SOUTHWEST AND SOUTH CENTRAL LOUISIANA

CITY           SKY/WX    TMP DP  RH WIND       PRES   REMARKS
DEQUINCY       PTCLDY    80  78  95 CALM      29.99R
SULPHUR        PTCLDY    82  80  95 S5        29.98R
LAKE CHARLES   PTCLDY    81  79  94 SE3       29.97R FOG
CHENNAULT INT  PTCLDY    80  78  93 CALM      29.97R FOG
JENNINGS       PTCLDY    82  82 100 MISG      29.97S
LAFAYETTE      PTCLDY    82  80  94 S6        29.98R
NEW IBERIA     PTCLDY    79  78  97 SW3       29.97S FOG
ABBEVILLE      PTCLDY    79  79 100 S5        29.97S
PATTERSON      PTCLDY    79  79 100 CALM      29.99R
SALT POINT       N/A     81  78  91 SW5       29.98R
$$

SELECTED SITES ACROSS THE REGION

CITY           SKY/WX    TMP DP  RH WIND       PRES   REMARKS
HOUSTON BUSH   MOCLDY    84  78  82 SE9       29.95S
HOUSTON HOBBY  CLOUDY    84  79  85 S7        29.96S HAZE
GALVESTON      MOCLDY    83  80  91 SE10      29.97S
COLLEGE STAT   MOCLDY    87  76  69 E9        29.94R
CONROE         CLOUDY    82  79  90 S6        29.97R FOG
HUNTSVILLE     MOCLDY    85  77  77 SE7       29.97R
LUFKIN         PTCLDY    81  78  91 NE3       29.97S
SHREVEPORT     PTCLDY    79  70  73 CALM      30.00R
MONROE         MOCLDY    78  72  81 CALM      30.00R
NATCHEZ MS     CLEAR     76  73  91 CALM      30.00R
BATON ROUGE    PTCLDY    85  79  82 SW8       29.98R
N.O. INTL ARPT PTCLDY    82  78  88 SW7       29.98R
SLIDELL        CLOUDY    84  79  85 SW5       29.98R
$$

MARINE REPORTS

STATION/POSITION TIME  SKY/WX   TEMP    WIND        PRES    VSBY
                                AIR SEA DIR/SP/G
                 (UTC)          (F)     (DEG/KT/KT) (MB)    (MI)
BUOY 30 S HIGH I 0340               85  150/ 10/ 12 1014.3R
SEA RIM ST PARK  NOT AVBL
PORT ARTHUR      0330            83 83  160/  2/  4 1013.6R
TEXAS POINT      0330            82 85  160/  7/  9 1013.2R
CALCASIEU PASS   0330            83 85  180/  7/  9 1015.0R
LK CHARLES BEACH 0330            83 90              1015.0R
MARSH ISLAND     NOT AVBL
FRESH WATER LOCK 0330            83 86  170/  5/  6 1019.0R
AMERADA PASS     0330               81  180/  2/  4 1015.9R
$$